RH
5 5 5 4 4 4 3 3 3 3 3 4 3 3 5 8 10 9 6 5 5 5 4 4 5 7 9 12 16 20 23 26 27 27 28 28 27 26 26 25 28 35 40 43 47 49 40 31 34 37 38 34 27 28 29 24 20 23 27 31 38 43 41 39 38 36 36 36 33 30 27 25 25 23 23 26 28 28 28 33 43 52 54 53 54 55 58 62
6 5 5 5 4 4 4 3 3 3 3 3 3 3 3 4 7 9 9 7 5 5 5 5 5 5 7 9 13 17 21 24 25 27 28 28 27 26 26 27 31 37 38 40 47 53 50 43 42 45 46 39 34 39 37 27 26 31 34 37 42 44 42 40 39 38 37 36 34 31 28 26 26 24 23 26 28 27 26 26 28 32 34 35 38 39 44 50
6 6 5 5 5 4 4 4 3 3 3 3 3 3 3 3 4 6 9 9 7 5 5 5 5 5 6 7 10 14 19 22 24 26 27 28 27 26 27 28 33 36 35 35 39 44 51 54 48 45 46 41 41 45 40 32 34 38 41 44 44 43 43 42 40 39 39 37 35 31 29 28 26 24 24 26 28 28 26 25 24 24 25 25 27 29 32 35
7 6 6 5 5 5 5 4 4 4 3 3 3 3 3 3 3 4 5 8 9 8 6 5 5 5 5 6 8 12 16 20 22 24 26 28 26 27 28 29 32 36 31 27 32 38 50 58 54 47 45 45 49 51 45 38 41 45 47 48 46 45 45 42 40 39 39 39 35 32 31 31 29 27 25 27 29 28 27 26 25 25 24 24 24 24 26 27
9 8 7 6 5 5 5 5 4 4 4 3 3 3 3 3 3 3 3 5 7 9 8 6 5 5 5 5 6 9 13 17 19 21 25 27 27 27 28 29 31 33 28 24 36 51 56 59 56 50 47 49 52 55 53 47 47 51 53 54 51 49 47 42 40 39 39 38 36 32 29 30 30 30 29 29 30 29 28 26 26 25 25 25 24 23 22 23
10 9 8 7 6 6 5 5 5 4 4 4 4 3 3 3 3 3 3 3 4 6 9 8 7 5 5 5 5 7 9 13 16 18 22 25 27 27 27 30 30 32 29 26 41 57 58 58 57 51 47 50 53 56 59 57 55 58 60 59 56 55 52 45 41 39 38 36 35 32 29 28 28 29 30 30 32 33 31 29 27 26 26 26 26 24 23 22
12 11 10 9 8 7 6 5 5 5 4 4 4 4 3 3 3 3 3 3 3 4 6 8 8 7 6 5 5 5 7 11 14 15 19 23 25 24 25 30 32 35 32 25 38 56 59 61 61 56 50 49 53 56 59 62 64 66 64 60 58 59 56 49 44 41 40 39 36 35 33 31 29 28 29 31 33 35 34 33 30 28 27 26 27 27 26 26
14 13 12 11 9 9 8 7 6 5 5 4 4 4 4 4 3 3 3 3 3 3 4 5 8 9 7 6 5 5 6 10 13 13 16 20 23 22 24 31 36 38 32 24 37 54 59 64 64 61 56 50 52 56 59 63 66 67 63 59 59 61 60 53 47 44 46 49 46 43 39 36 36 34 30 32 33 33 31 30 28 25 24 24 25 26 29 30
17 15 13 12 11 10 9 8 7 6 5 5 4 4 4 4 4 3 3 3 3 3 3 3 5 7 9 8 6 5 6 8 10 12 13 17 21 21 24 33 39 40 32 26 38 52 58 62 63 61 59 52 51 56 58 59 58 57 58 61 60 61 61 56 51 50 51 57 57 52 46 41 42 44 40 37 35 32 29 26 23 21 21 21 21 25 34 39
20 19 17 14 13 12 10 10 9 8 7 6 5 4 4 4 4 4 3 3 3 3 3 4 4 5 7 8 8 7 6 7 8 10 11 14 18 21 26 33 41 42 32 29 38 49 57 60 62 60 58 53 50 53 54 52 49 50 54 58 61 62 63 60 55 55 52 55 60 59 56 50 46 51 54 49 42 35 30 26 23 23 22 21 23 29 35 37
23 22 20 18 15 13 12 11 10 9 8 7 6 5 5 4 4 4 4 4 3 3 3 3 4 4 5 6 8 8 7 7 6 8 10 12 16 20 26 33 43 41 31 33 37 44 55 62 64 62 58 53 50 51 50 48 47 49 52 54 58 62 65 65 59 56 53 52 57 59 61 60 54 56 61 59 53 43 34 30 26 26 27 27 31 34 35 34
22 22 21 20 18 16 14 12 11 10 9 8 7 6 5 5 5 4 4 4 3 3 3 3 3 4 4 4 7 8 8 7 7 7 8 11 14 17 24 33 44 42 34 37 38 43 54 61 67 66 59 53 50 49 47 48 49 51 53 54 57 60 65 68 65 60 55 52 54 56 61 64 61 63 65 63 61 52 40 32 29 29 31 31 33 37 40 36
17 17 18 19 19 18 16 14 12 11 10 9 8 7 6 6 5 4 4 4 4 4 3 3 3 3 4 4 5 6 7 8 7 7 7 10 12 15 22 31 43 43 38 39 37 45 56 61 68 66 58 53 49 48 48 49 51 52 54 55 57 61 63 67 69 66 59 54 52 55 60 66 67 66 67 66 65 59 46 36 32 33 35 35 35 37 40 34
13 13 14 15 17 18 17 15 14 12 11 10 9 8 8 7 6 5 5 4 4 4 3 4 3 3 4 4 5 4 5 7 8 8 8 9 12 14 19 28 39 43 40 38 35 46 59 63 66 64 59 56 50 49 52 52 54 53 52 53 56 61 62 66 71 70 64 56 52 54 57 64 69 67 67 69 68 61 50 41 38 38 42 43 40 36 37 35
12 12 11 12 13 15 16 16 14 13 12 11 10 9 8 8 7 6 6 5 5 4 4 4 3 3 4 5 4 4 4 5 8 9 8 9 11 13 16 23 33 39 40 37 36 49 62 64 67 67 62 58 54 52 53 52 52 52 51 52 55 60 62 64 68 70 68 59 53 53 54 58 63 63 66 71 70 62 52 47 44 46 49 50 46 40 37 39
14 13 12 11 11 13 14 15 14 14 12 11 11 10 9 8 7 7 6 6 5 5 5 4 4 3 3 4 4 4 4 4 6 8 8 8 9 12 14 18 26 34 36 34 37 52 62 65 69 71 64 58 54 52 51 47 47 49 50 51 54 58 61 61 64 68 69 62 55 54 53 54 56 60 67 73 71 62 55 53 51 52 56 55 52 46 42 42
17 16 15 13 12 12 12 13 13 13 13 12 11 10 9 8 8 7 6 6 6 5 5 4 4 4 3 4 3 4 4 4 5 5 8 8 9 11 11 13 21 29 32 30 38 52 59 63 70 72 69 65 57 50 46 43 44 48 50 51 51 53 57 60 63 66 66 60 56 56 54 52 52 57 68 73 71 64 60 57 53 54 59 58 54 50 48 47
21 20 18 16 15 13 12 12 12 13 12 12 11 10 9 8 8 7 7 6 6 6 5 5 5 4 4 4 3 4 4 4 5 4 6 8 9 9 9 11 15 23 28 28 38 51 53 59 68 72 73 73 67 61 55 46 43 48 50 51 50 51 52 56 60 61 61 57 55 57 56 54 52 54 63 69 71 69 63 56 52 55 58 56 55 54 53 53
25 24 22 19 17 16 14 13 12 12 12 11 11 10 9 9 8 7 7 6 6 6 6 5 5 5 4 4 3 3 3 4 5 5 5 6 9 9 8 9 9 16 22 24 36 49 52 56 67 73 74 76 75 72 69 60 52 52 53 53 52 52 52 53 57 57 57 56 54 55 56 55 52 53 59 65 71 73 64 54 52 55 56 55 56 57 57 57
29 29 25 21 19 18 16 14 13 12 12 12 11 10 9 9 8 7 7 7 6 6 6 6 6 5 5 4 4 3 3 4 4 5 5 5 7 8 9 8 7 11 16 20 31 44 54 59 65 73 73 76 78 73 70 68 63 58 56 54 53 53 54 54 56 57 57 56 54 53 54 54 53 55 59 62 67 71 65 54 52 54 54 55 56 57 59 58
31 32 29 24 22 20 17 15 14 13 13 12 11 10 9 9 8 8 7 7 7 6 6 6 6 6 5 5 4 3 3 4 4 5 5 5 5 6 8 9 8 7 11 18 23 32 48 56 63 69 67 70 75 70 66 67 64 60 56 54 53 55 57 55 56 56 56 56 53 53 54 53 55 58 58 58 63 70 68 57 52 54 52 52 55 56 56 58
31 34 31 27 24 22 18 16 14 14 13 13 12 11 10 9 8 8 7 7 7 6 6 6 6 6 5 5 4 4 3 3 4 4 5 5 4 6 7 8 9 7 9 15 17 21 30 42 60 68 63 69 73 67 65 65 62 60 56 53 54 56 56 56 56 54 53 54 54 56 55 52 55 57 52 52 60 68 69 59 52 54 52 48 49 51 52 55
31 35 33 28 26 24 20 16 14 14 14 13 12 11 10 9 8 8 8 7 7 7 7 6 7 6 5 5 5 5 4 3 4 4 5 5 5 6 6 6 9 8 8 9 13 17 16 30 58 67 65 71 71 65 63 62 62 60 54 53 54 54 53 54 55 55 55 56 56 60 59 52 50 50 47 49 58 65 68 63 55 54 54 47 44 46 47 51
30 34 34 30 27 26 21 17 14 14 14 13 13 12 11 9 9 8 8 8 7 7 7 7 7 6 5 5 5 5 5 4 4 4 4 5 5 6 6 6 6 7 9 7 10 12 12 29 55 63 65 67 63 64 63 60 62 60 54 54 53 53 54 54 55 55 55 57 58 60 58 52 45 45 44 46 54 61 64 63 56 53 55 49 43 43 44 49
30 34 35 31 28 28 23 17 14 14 14 14 13 12 11 10 9 8 8 8 8 7 7 7 7 6 6 6 6 6 5 5 4 4 4 5 5 6 5 6 5 6 8 7 8 8 11 34 54 56 59 59 55 61 62 57 61 61 57 56 55 56 58 57 56 55 54 55 58 57 54 49 42 43 44 44 53 60 59 59 56 52 54 50 43 42 44 47
31 34 35 32 29 29 25 19 15 14 14 14 14 13 13 12 10 9 9 9 8 8 8 7 7 7 6 6 6 6 6 5 5 4 4 4 5 5 5 6 5 6 7 6 7 6 10 32 51 53 53 51 50 58 59 55 59 62 60 58 57 57 59 61 59 58 56 54 56 55 52 49 42 42 46 49 57 59 54 54 54 50 50 48 43 42 45 46
31 33 34 33 30 30 27 20 16 15 14 14 14 14 13 13 11 10 10 9 9 10 8 8 7 7 7 6 6 7 6 6 5 4 4 4 4 4 5 6 5 6 6 5 6 6 8 20 39 50 51 49 50 57 60 56 56 60 60 59 59 58 59 61 61 60 58 57 55 53 51 49 44 42 46 52 57 55 52 53 52 50 48 45 41 42 45 45
31 32 33 33 31 30 28 22 17 15 14 15 15 15 14 14 13 12 11 10 12 14 12 9 8 7 8 7 7 7 7 6 6 5 4 4 4 4 4 5 6 6 6 5 5 5 7 12 23 35 39 45 52 58 62 59 54 57 60 59 59 58 58 60 61 61 60 58 56 53 50 49 46 45 46 50 53 52 51 52 52 50 47 44 40 41 45 45
32 30 32 33 31 31 29 24 18 15 15 15 15 15 15 14 13 13 12 11 14 17 15 11 9 8 7 7 8 8 7 7 6 6 5 4 4 4 4 5 5 5 5 5 5 5 7 10 16 23 25 35 50 57 61 60 54 54 58 58 58 58 59 60 59 59 59 58 57 53 50 48 49 49 48 48 50 51 53 52 52 50 47 44 40 40 44 45
32 29 30 32 31 30 30 25 19 16 15 16 16 16 16 15 14 13 12 12 15 17 16 13 11 9 8 7 8 8 8 8 6 6 6 5 5 4 4 4 4 5 5 4 5 5 6 8 14 20 20 29 45 51 57 61 54 52 57 59 58 57 58 60 59 58 57 57 56 53 48 48 48 49 49 50 50 50 51 50 50 50 48 44 40 41 44 44
32 29 28 32 31 29 30 26 20 17 17 16 16 17 16 15 14 13 12 13 15 16 17 16 13 11 10 8 7 8 8 8 7 7 6 5 5 5 4 4 4 4 4 4 5 5 5 6 9 16 21 29 40 45 53 60 53 50 57 59 59 57 55 57 58 56 55 55 55 51 47 47 48 48 49 50 50 49 48 47 46 48 47 42 39 40 43 45
31 30 27 31 31 29 30 27 21 18 18 18 17 17 17 15 14 13 13 13 15 17 16 16 16 14 12 10 8 7 7 8 7 7 7 6 6 6 5 5 4 4 4 5 5 5 5 5 6 11 18 29 41 45 50 58 53 49 54 59 59 58 56 54 53 53 54 53 52 51 50 48 48 48 47 46 47 47 47 46 46 46 44 40 38 40 44 47
31 31 27 30 31 29 30 28 23 19 18 18 18 17 17 15 14 13 13 13 15 17 17 17 17 18 17 14 11 8 7 8 7 8 8 7 6 6 6 5 5 5 5 5 5 5 5 5 5 7 11 23 39 46 47 54 54 49 53 59 58 57 55 53 52 52 51 51 49 48 49 48 46 46 44 41 40 42 46 48 46 43 40 39 38 39 44 46
32 31 28 29 31 29 29 30 25 20 19 19 18 18 17 15 14 13 13 13 14 15 18 21 21 21 21 18 15 12 9 7 7 7 7 7 6 6 7 7 7 6 6 6 5 5 5 5 5 6 7 12 28 44 48 49 53 51 51 55 54 51 51 51 52 51 49 50 52 49 48 45 44 43 39 35 36 41 47 51 46 39 37 39 38 39 44 43
33 32 29 28 31 29 29 31 26 21 20 19 19 18 16 15 14 13 13 13 13 13 18 23 24 24 23 20 17 15 12 9 8 7 7 7 6 7 7 9 9 8 8 7 7 6 5 7 6 5 6 6 16 33 39 39 49 55 48 42 41 44 47 47 46 46 49 52 51 47 45 43 42 38 32 31 36 41 48 50 44 36 36 38 38 40 42 41
36 33 29 27 30 29 28 31 28 22 21 20 19 18 16 15 14 13 13 13 13 14 19 25 26 26 25 21 18 17 14 12 10 9 8 7 7 7 7 8 8 7 7 7 7 7 6 7 7 5 6 5 7 16 21 29 46 53 41 30 33 41 45 45 43 43 49 53 50 46 43 43 42 33 29 33 36 40 46 44 37 35 38 39 39 42 43 45
38 35 30 27 30 30 28 30 29 24 21 20 19 17 15 15 14 13 13 13 13 15 21 28 29 27 27 23 20 18 16 14 12 11 9 7 8 10 9 10 9 6 7 8 9 10 9 8 8 5 5 5 5 9 13 23 35 40 40 38 39 43 43 43 44 44 45 46 47 46 41 39 36 28 30 38 40 41 42 38 34 37 39 41 46 48 47 50
40 36 32 28 29 30 27 29 29 25 22 21 19 17 16 16 14 13 13 13 15 18 23 30 30 26 26 24 20 18 16 14 13 11 9 9 13 18 18 18 15 8 8 10 11 11 10 11 11 6 5 5 5 8 11 16 22 30 47 57 51 47 47 45 43 41 41 41 41 38 35 33 30 29 35 42 42 40 37 35 36 38 40 46 53 52 52 53
41 37 33 28 29 30 27 28 30 26 23 21 19 17 17 17 15 14 14 14 16 19 25 32 32 27 26 23 19 17 14 14 13 11 11 15 21 26 25 24 21 14 9 10 14 16 12 14 15 9 6 7 5 6 11 22 29 33 48 61 53 46 49 49 47 45 46 47 43 38 37 36 35 36 39 41 40 38 36 36 37 37 41 46 50 52 55 53
41 38 34 29 28 30 27 27 29 28 24 21 19 18 17 17 15 14 14 15 17 20 26 33 34 31 29 23 18 16 13 13 14 12 15 22 28 31 28 26 27 24 18 15 19 21 15 14 20 14 6 8 7 7 13 23 30 33 42 52 50 45 45 46 45 45 46 46 43 41 41 40 40 40 40 38 38 37 36 36 35 35 37 40 45 53 56 52
42 39 35 29 28 30 28 26 28 28 25 22 19 18 17 16 15 14 14 15 17 20 25 33 37 36 32 24 19 18 16 17 20 18 21 27 29 30 28 28 32 31 27 24 24 25 22 22 29 23 12 14 17 17 24 31 35 41 43 43 46 47 44 43 42 42 43 43 43 44 43 43 44 42 39 36 34 34 33 32 31 32 36 40 48 55 53 49
42 39 35 29 27 29 28 26 28 29 26 22 20 18 17 16 15 15 15 14 18 22 26 33 41 40 34 25 21 24 25 27 27 23 25 29 29 30 29 29 33 32 28 30 30 30 30 32 35 29 22 29 32 27 34 44 48 50 46 41 43 45 42 42 42 42 44 44 46 48 47 46 44 39 36 34 33 32 31 32 34 38 43 45 49 53 51 48
42 39 35 30 27 29 28 25 27 29 26 22 20 18 16 16 15 15 15 17 22 27 32 39 44 43 36 27 24 30 35 34 29 25 27 31 31 31 31 31 33 31 27 29 33 30 28 30 35 34 33 40 44 37 40 49 53 52 47 42 41 40 38 40 40 41 44 45 48 49 47 44 40 36 37 37 37 38 39 43 49 53 56 56 57 56 51 47
41 38 34 30 27 28 29 26 26 29 26 23 21 18 16 16 16 15 16 19 26 34 41 46 46 42 38 32 29 36 40 34 28 27 29 33 33 32 32 32 32 31 26 27 31 28 24 29 34 36 41 45 47 45 45 49 50 48 45 40 38 38 39 41 41 42 42 42 43 43 41 40 39 40 43 43 43 44 46 51 58 64 67 67 66 61 52 51
40 38 35 31 28 29 29 27 27 28 27 23 21 18 16 17 17 16 16 18 27 38 46 49 46 42 40 38 35 37 38 32 27 30 33 34 35 33 32 32 31 29 26 26 29 26 23 29 33 33 39 43 44 44 43 44 43 41 39 37 36 38 40 42 41 39 39 39 39 39 39 41 43 46 48 46 45 46 46 47 54 63 66 66 66 62 59 62
39 36 34 30 28 29 29 28 28 29 27 24 20 17 17 18 17 17 16 17 24 36 44 47 46 43 42 44 44 41 36 32 29 32 36 37 37 34 31 32 29 27 27 26 28 28 28 32 33 30 33 38 39 38 37 39 40 38 37 37 37 38 40 41 39 37 36 36 37 39 41 44 47 49 48 47 46 44 41 41 49 58 61 62 64 61 61 64
39 35 34 32 28 29 30 28 28 29 27 23 20 17 17 18 17 17 17 16 19 28 40 46 46 45 46 47 51 47 38 33 31 32 36 41 42 35 30 31 29 26 29 30 30 31 32 34 34 31 29 33 35 32 30 33 37 37 38 39 39 39 39 40 39 37 38 38 41 45 47 49 51 50 47 45 42 39 39 42 50 58 59 61 62 59 57 56
38 35 34 33 29 28 30 29 28 29 26 23 20 17 18 19 18 17 16 16 15 19 35 48 45 44 49 50 52 53 42 35 33 31 35 43 43 36 31 31 29 28 30 32 32 34 35 36 36 34 32 33 34 32 29 30 33 36 40 43 45 43 40 39 40 40 41 44 47 50 51 52 51 48 45 41 39 42 47 51 55 58 58 59 59 56 50 43
37 35 35 34 30 28 30 30 29 28 26 23 19 17 19 20 18 18 15 15 16 13 25 46 48 43 48 50 52 56 49 41 36 32 35 44 43 36 33 32 29 30 32 31 32 35 36 37 37 36 36 37 36 36 34 30 30 33 37 41 46 46 43 41 42 44 44 44 47 50 51 50 47 45 41 36 40 49 52 52 54 56 57 56 52 45 36 31
36 36 36 35 30 28 30 30 29 28 25 22 20 18 19 19 17 18 15 14 17 13 15 36 46 41 43 49 52 55 53 50 44 36 36 45 45 37 34 34 32 31 32 31 33 36 36 37 39 38 37 37 37 36 35 32 29 30 31 33 38 42 43 42 43 45 45 45 47 48 48 46 44 43 37 33 41 50 50 50 54 56 54 48 39 31 28 29
36 36 37 35 29 27 30 30 28 28 25 22 21 18 17 18 17 17 16 13 15 15 14 25 35 36 41 49 51 53 53 53 51 44 39 44 49 42 35 35 35 34 33 31 34 39 39 36 38 38 38 37 35 34 34 32 29 29 29 29 31 35 39 41 42 43 43 44 44 42 41 40 38 37 34 34 43 50 49 50 52 50 43 34 27 26 28 29
36 38 38 34 28 27 30 30 28 28 24 21 21 18 16 18 17 16 16 14 13 14 14 19 26 31 40 50 53 52 52 52 52 50 43 43 48 47 41 38 37 35 35 34 35 39 41 39 38 36 35 34 31 31 34 34 32 34 36 35 33 32 33 34 36 37 37 37 37 37 36 34 33 35 37 41 48 49 45 42 39 33 27 23 23 24 24 23
Wind_Speed
12 11 11 11 10 9 9 9 10 11 11 11 10 11 12 12 13 12 11 11 10 8 7 6 7 9 11 13 14 15 14 11 9 7 5 4 2 1 3 5 7 7 8 15 19 19 19 18 19 22 24 25 27 29 31 31 31 32 32 32 33 34 34 34 33 33 33 32 29 30 30 31 32 32 33 33 32 31 31 30 28 26 24 24 23 22 21 20
13 13 12 12 11 11 10 10 10 10 11 11 11 11 11 12 13 13 13 13 12 11 10 8 8 8 10 12 14 15 15 12 10 8 6 5 4 1 3 5 6 6 8 12 15 16 18 18 17 21 24 25 27 29 31 33 33 34 34 34 33 35 36 35 33 32 32 31 29 29 29 30 31 31 32 33 32 32 32 32 30 28 26 25 24 23 23 21
14 13 13 13 13 12 12 11 11 11 11 12 12 12 12 12 12 13 14 14 14 13 12 11 10 9 9 11 13 15 15 14 11 10 8 6 5 2 3 5 5 7 7 9 11 12 13 15 15 18 23 25 27 29 31 33 34 35 36 36 34 34 36 36 34 32 31 31 30 29 29 30 30 30 30 31 31 30 31 32 31 30 29 28 26 25 24 23
14 14 14 14 14 13 13 12 12 12 12 12 12 12 12 13 12 13 14 15 16 15 15 14 12 11 10 10 12 14 15 14 13 11 9 7 5 3 2 3 4 6 6 8 12 13 14 16 14 17 22 25 27 28 30 32 34 35 36 36 34 34 36 35 35 33 31 30 30 30 29 29 29 29 29 30 29 29 29 29 29 29 29 29 28 27 26 24
14 14 14 14 14 14 14 14 13 13 13 12 12 13 13 13 13 13 14 14 16 16 16 16 15 14 12 11 11 13 15 14 13 13 11 8 6 4 2 2 3 4 5 10 16 18 19 19 15 17 21 24 26 28 28 30 31 31 33 34 32 33 35 35 34 33 31 30 29 30 29 29 29 29 29 29 29 28 27 27 27 27 28 28 27 27 26 24
15 15 15 14 14 14 15 15 15 15 14 14 13 13 13 14 14 14 14 14 15 16 17 17 17 17 15 14 12 12 14 14 13 14 13 10 8 6 4 2 2 2 5 10 17 21 22 20 17 17 20 22 24 26 26 27 27 27 30 31 30 31 33 34 34 32 31 30 29 29 29 29 28 29 29 28 28 26 26 26 26 26 26 26 26 26 25 24
16 16 15 15 15 15 15 15 15 16 16 15 15 14 14 14 14 15 15 15 15 16 17 18 19 19 18 17 15 13 13 13 14 14 14 12 10 8 7 3 2 2 3 8 15 19 22 20 18 18 18 20 21 23 24 25 25 25 27 29 29 30 31 33 33 31 30 29 29 29 28 28 28 29 28 28 27 25 24 25 25 25 25 25 24 24 24 23
18 17 17 16 16 16 16 16 16 16 16 16 16 16 15 15 15 15 16 16 16 16 17 18 19 20 20 19 18 15 13 14 15 15 15 14 12 10 8 5 3 1 2 7 13 17 21 21 19 18 18 18 19 20 23 25 25 25 26 26 27 28 29 31 31 30 29 29 29 28 27 27 28 29 28 28 26 24 24 24 25 25 25 24 24 24 24 22
19 19 18 18 17 17 17 17 17 17 17 17 17 17 17 17 16 16 16 16 17 17 17 18 19 21 21 21 20 18 16 16 16 15 16 15 14 11 9 7 5 4 3 6 10 15 19 20 18 17 17 17 18 19 21 24 25 26 25 23 25 26 27 28 29 29 29 29 28 27 27 26 27 28 28 28 27 25 24 24 25 25 25 25 25 27 27 26
21 20 20 20 19 19 18 18 18 18 18 18 18 18 18 18 18 17 17 17 17 18 18 18 19 20 21 23 22 20 20 19 17 16 15 15 14 12 10 10 8 7 5 6 9 13 15 16 16 15 16 17 17 19 21 23 25 25 24 22 22 23 24 25 26 27 28 28 27 27 26 25 25 27 28 27 27 25 24 24 26 26 26 26 27 28 31 31
23 22 22 21 21 20 20 19 19 19 19 18 18 19 19 19 19 19 19 18 18 18 19 19 20 20 21 23 22 22 23 22 19 18 16 15 14 13 13 13 11 10 8 7 9 11 13 14 14 14 15 16 18 19 21 21 23 23 23 22 21 21 21 21 22 24 26 27 26 26 26 25 24 25 27 27 26 25 24 24 25 27 27 28 27 27 32 35
25 24 24 23 23 22 21 21 20 20 20 19 19 19 20 20 20 20 20 19 19 19 19 20 20 20 21 21 21 24 26 24 22 20 17 15 15 16 16 15 14 12 11 10 8 9 11 13 13 12 13 15 18 19 19 19 20 21 20 20 19 19 19 18 18 20 23 25 25 25 25 24 23 23 25 27 26 24 23 23 24 26 27 29 27 24 29 35
26 26 26 25 25 24 23 22 22 21 20 20 20 20 20 20 20 21 21 21 20 20 20 20 21 21 21 20 21 25 26 25 24 21 19 17 16 17 19 17 16 14 13 12 10 9 10 10 11 12 13 14 16 17 17 17 18 19 18 17 17 17 17 15 14 15 19 22 23 24 24 24 23 22 24 26 25 23 22 22 22 24 27 29 28 25 27 31
27 27 27 27 26 26 25 24 23 22 22 21 21 21 21 21 21 21 22 22 21 21 21 21 21 22 22 20 23 26 25 25 24 22 22 20 17 19 21 20 18 16 15 13 12 12 11 10 11 12 13 13 14 15 15 16 16 16 16 16 16 15 14 13 12 12 14 18 20 22 23 23 23 24 25 24 22 21 21 21 22 24 26 27 27 26 27 29
26 27 28 28 28 27 26 26 25 24 23 22 22 22 22 22 22 22 23 23 22 22 22 22 22 22 22 22 24 25 24 24 24 24 25 24 21 20 22 22 21 19 17 16 15 15 14 12 12 12 13 13 13 13 13 13 13 14 14 15 15 15 14 11 10 10 11 14 16 19 20 21 23 25 26 24 21 20 20 21 22 24 26 26 26 26 26 27
25 25 26 27 28 28 28 27 26 25 24 24 23 23 23 23 23 23 23 23 23 23 23 23 23 22 22 23 25 25 24 23 24 27 27 26 24 22 23 24 23 22 21 19 18 18 17 15 14 13 13 14 13 12 11 11 11 13 14 14 14 14 13 11 9 8 8 11 13 16 18 19 21 24 25 23 21 19 19 21 23 24 25 25 25 25 25 26
23 23 24 25 27 28 28 27 27 26 25 24 24 23 24 24 23 24 23 23 23 23 24 24 23 22 22 23 25 25 24 24 24 26 26 25 25 25 26 26 26 26 25 23 22 21 19 17 17 14 12 11 12 11 9 9 9 11 13 12 12 12 11 9 8 6 6 8 11 14 16 18 20 22 23 23 21 18 19 21 23 25 25 25 25 25 26 26
22 22 23 23 25 26 27 27 27 26 25 25 24 24 24 24 24 24 23 23 23 23 24 24 23 22 22 23 25 26 25 24 24 24 24 25 26 28 28 27 29 29 28 26 25 24 22 20 19 17 12 8 8 7 6 7 8 9 11 10 10 9 7 7 6 4 5 7 9 12 14 16 18 20 21 22 20 17 18 22 24 25 25 25 25 26 26 26
21 21 21 22 23 24 25 26 26 25 25 24 24 24 24 24 24 24 24 24 24 24 24 23 23 23 22 23 25 26 25 24 23 22 23 25 28 30 29 28 29 29 30 28 28 27 25 24 22 19 13 8 6 4 4 5 5 6 7 7 8 7 5 3 3 4 5 6 8 10 12 14 16 18 19 20 18 16 17 20 23 25 26 26 25 25 25 24
21 21 21 21 22 23 24 24 24 23 23 23 23 24 24 24 24 24 24 25 25 24 24 23 22 22 23 23 25 26 25 24 22 22 23 24 28 30 30 29 28 30 30 29 29 30 29 28 25 20 15 12 10 7 6 5 4 3 3 4 6 5 4 2 1 3 6 7 8 9 10 12 15 16 17 18 17 15 15 18 21 24 25 25 25 24 23 23
21 21 21 21 21 22 23 23 23 22 22 23 23 23 24 24 24 23 24 24 24 23 23 22 21 22 23 23 25 25 24 23 22 22 23 23 26 28 29 29 29 29 28 28 30 31 31 30 26 22 18 18 15 11 10 8 7 6 3 3 4 4 4 2 2 4 6 7 8 9 9 11 14 15 16 17 16 14 14 16 20 22 23 24 23 23 22 22
22 21 21 21 21 22 22 22 22 22 22 22 22 23 23 23 23 22 22 23 22 21 21 21 21 22 23 23 23 23 23 22 23 23 23 23 24 25 27 28 29 28 26 28 30 31 32 30 26 25 23 22 19 16 13 12 9 7 6 5 4 3 1 4 4 5 6 6 7 8 9 10 12 14 15 17 15 13 13 16 19 20 21 22 22 22 22 23
23 22 21 21 21 22 22 22 21 21 21 21 22 22 22 22 22 21 21 21 21 19 20 20 20 22 23 22 22 21 21 21 23 23 22 22 22 22 24 26 28 29 28 29 30 32 31 28 29 28 27 25 22 19 16 14 11 9 8 7 5 4 3 3 5 7 5 5 7 8 10 10 11 13 15 16 15 13 13 15 17 18 18 20 21 21 22 23
24 23 22 21 21 22 22 22 21 21 21 21 21 21 21 21 21 21 20 20 20 18 19 20 20 22 23 21 20 19 20 20 20 21 21 22 22 22 23 25 27 29 31 30 31 32 28 28 32 32 29 27 25 22 19 16 13 10 11 9 8 6 4 5 6 8 7 5 8 9 10 11 10 12 14 15 15 14 14 14 15 15 15 18 19 21 21 22
24 23 22 21 21 22 22 21 21 22 21 21 21 20 20 20 20 20 19 19 19 17 17 18 19 21 21 20 18 17 17 17 18 20 22 23 23 23 23 25 27 28 30 30 30 30 27 30 35 33 31 29 28 25 20 17 14 11 12 11 10 8 2 4 6 8 9 7 8 10 10 12 11 12 14 16 15 12 12 12 13 13 14 16 19 20 21 21
25 24 23 22 21 22 22 21 21 22 22 21 20 20 19 19 19 19 18 18 18 17 16 17 19 20 20 19 18 17 16 16 18 20 22 24 25 25 25 25 25 26 27 27 28 28 27 32 35 33 32 31 29 27 21 18 16 14 14 13 12 10 6 3 5 7 10 10 11 12 13 13 12 12 13 14 12 9 10 10 10 12 14 16 19 20 20 22
25 25 24 22 22 22 22 21 22 22 22 21 20 19 19 18 18 18 18 18 17 16 17 17 18 19 21 21 18 17 16 16 18 20 22 24 25 26 26 25 23 23 25 26 27 25 23 31 37 36 34 33 31 26 22 21 20 17 17 15 13 12 8 6 6 6 9 12 13 14 14 14 11 10 10 10 9 9 9 9 9 11 14 16 20 20 20 22
25 25 24 23 22 22 22 22 22 22 22 21 20 19 18 18 18 18 18 18 16 15 16 18 18 19 21 22 19 17 17 18 19 20 22 25 26 26 26 24 23 23 25 26 26 24 21 27 37 39 39 37 32 27 24 25 24 21 19 17 15 13 10 8 8 7 11 14 15 14 14 15 12 9 8 8 9 9 8 9 10 12 15 18 21 21 21 23
25 26 25 23 22 22 22 22 22 22 21 21 21 20 19 18 18 18 18 17 14 14 17 19 19 20 22 21 19 19 19 20 21 21 23 25 25 25 24 24 25 25 26 27 26 24 22 25 35 41 42 40 34 30 29 28 26 24 22 18 17 16 12 11 11 9 13 16 16 16 17 17 14 9 7 8 11 10 8 10 12 14 16 19 22 22 22 25
25 26 25 24 23 22 22 22 22 22 22 21 21 20 19 19 18 18 18 16 15 16 17 19 21 22 22 21 20 20 20 21 22 23 23 24 23 23 24 25 26 27 26 26 25 24 23 25 33 40 41 39 36 33 31 29 27 27 23 19 19 19 16 14 13 13 16 18 17 17 18 19 17 9 6 8 10 11 11 14 16 17 19 21 23 23 25 27
25 26 26 25 23 22 22 22 22 22 22 21 21 20 19 19 18 18 17 16 17 18 17 19 21 22 22 21 20 20 20 21 23 23 22 22 21 21 23 24 26 26 26 25 24 23 22 23 30 36 37 37 37 35 33 30 29 29 25 20 21 21 20 17 15 17 20 19 18 19 19 19 18 10 6 9 10 12 14 16 18 19 20 22 24 25 27 28
26 26 26 26 24 23 23 22 22 22 22 22 21 20 19 18 18 18 18 17 18 19 18 18 20 21 21 20 20 20 20 21 22 21 20 20 20 20 21 23 24 24 24 24 23 23 22 22 25 31 35 37 38 37 35 32 30 30 27 22 21 22 22 20 19 20 22 20 19 20 21 20 17 10 8 10 11 12 15 16 18 19 20 22 24 27 28 27
26 26 26 26 25 23 23 23 23 22 22 22 21 20 20 18 18 19 19 19 20 19 18 18 19 18 18 18 19 20 20 20 21 20 19 17 17 18 19 20 22 22 22 23 23 23 23 22 22 26 32 37 40 40 37 33 31 30 28 25 24 25 24 22 21 22 22 20 20 21 21 21 17 14 13 11 11 13 15 16 17 20 22 22 24 27 27 26
27 27 26 27 25 24 24 24 24 22 22 22 22 21 19 18 19 20 20 21 21 19 18 17 17 17 17 16 18 19 21 22 21 20 18 15 13 13 15 18 19 19 20 22 23 23 21 19 19 21 27 34 40 41 38 35 33 31 30 28 28 28 25 23 23 23 22 20 20 21 22 21 19 17 15 12 11 13 15 16 18 21 23 24 25 27 27 28
28 27 27 27 26 24 25 25 24 23 22 22 21 20 18 19 21 22 21 21 20 19 18 17 17 17 17 17 17 19 21 22 22 20 17 13 11 11 13 15 18 19 20 21 21 20 19 18 19 21 24 29 36 41 39 38 36 34 33 33 31 28 25 23 23 24 22 20 21 22 21 21 20 19 16 12 11 14 17 18 20 23 24 25 27 28 28 29
29 29 28 28 27 25 25 25 24 23 22 21 21 19 18 20 23 23 22 21 19 19 18 17 17 17 18 18 18 20 21 22 21 18 15 12 12 12 12 12 14 16 17 18 17 17 17 18 20 21 20 23 31 37 40 40 38 36 35 33 28 26 25 23 22 22 22 22 23 23 20 19 20 20 18 13 13 17 19 20 22 24 25 26 27 28 30 29
31 30 29 28 27 27 26 26 24 23 22 21 20 19 20 22 24 23 22 21 20 19 19 19 19 19 19 19 20 20 21 21 19 15 12 12 11 9 8 8 9 10 11 13 14 14 15 16 18 19 18 21 26 32 38 40 40 38 35 29 25 23 22 21 20 21 21 22 24 25 23 22 23 22 18 16 17 19 20 22 24 25 26 27 28 29 30 29
32 32 30 28 28 28 27 26 25 24 23 21 20 20 21 23 24 23 22 21 21 21 21 21 21 21 21 20 20 20 20 20 18 15 13 12 9 6 5 4 5 8 9 11 12 13 14 15 16 16 16 19 24 29 33 36 38 37 33 29 26 24 21 20 19 18 17 18 19 19 19 19 20 19 17 18 20 20 22 23 25 26 27 27 27 29 30 29
34 33 30 28 29 29 28 26 25 24 23 22 21 21 22 24 24 23 21 21 21 22 22 22 21 22 21 20 19 19 20 19 18 17 14 14 11 9 8 6 6 7 9 11 11 12 14 15 14 14 16 18 22 26 30 33 35 34 33 31 27 24 23 22 21 19 17 17 15 13 12 12 14 15 17 20 21 21 23 25 26 28 27 26 28 30 30 31
35 33 31 29 30 29 28 27 26 25 23 23 22 22 23 24 24 22 21 21 22 23 24 24 23 22 21 20 19 18 17 18 18 18 16 16 14 12 11 10 10 9 10 12 13 13 14 13 11 13 17 18 19 22 27 31 32 30 31 30 25 22 22 22 20 19 17 17 15 14 12 11 12 15 17 19 20 21 24 27 28 29 28 29 30 29 30 33
36 34 32 31 31 30 29 27 26 25 24 24 23 22 23 23 22 22 21 22 22 23 24 25 24 22 20 20 19 17 16 17 18 18 18 17 16 16 14 14 15 13 13 14 12 10 10 9 9 12 16 16 17 20 25 28 28 28 29 27 24 23 24 22 21 19 17 16 16 16 15 14 15 17 18 20 21 24 27 29 30 31 31 31 30 30 32 35
37 35 33 31 31 31 29 28 26 26 25 25 24 22 22 22 21 22 22 23 24 24 24 24 24 23 21 21 20 18 18 18 18 19 20 19 18 18 16 16 16 15 16 16 13 11 11 11 11 13 16 18 18 22 27 27 27 28 28 26 24 23 23 22 22 21 19 19 19 20 20 18 17 18 19 21 24 25 27 29 30 31 32 32 31 32 35 39
37 35 34 32 31 31 30 28 27 27 27 25 23 21 21 21 22 23 24 25 26 26 25 24 23 23 23 23 21 20 19 18 19 21 22 20 19 19 17 17 18 16 15 15 12 11 12 13 13 13 17 21 20 23 28 28 27 28 26 25 24 21 20 20 20 20 21 21 22 22 22 19 18 18 21 23 25 25 26 27 29 31 32 32 34 36 39 43
38 36 34 32 31 31 30 29 29 29 27 25 22 21 21 22 24 25 26 27 28 27 26 24 23 22 23 24 22 21 20 19 20 22 22 19 19 19 17 17 16 13 12 13 11 9 7 9 12 13 17 22 21 23 26 25 25 27 25 23 22 20 19 20 21 21 21 20 20 20 19 19 20 21 23 24 24 25 26 28 30 31 33 34 35 37 40 38
38 36 35 32 31 32 32 31 30 29 27 25 22 21 22 24 27 26 26 27 29 29 27 25 24 22 23 24 22 23 23 20 21 23 21 18 18 19 17 14 13 13 13 12 12 11 7 8 11 12 15 20 20 19 21 22 24 24 22 21 20 20 19 18 18 19 19 19 19 19 20 21 22 23 23 24 25 27 28 30 31 32 32 32 32 34 33 30
39 37 35 33 32 33 33 32 31 29 27 26 24 22 22 25 27 26 25 28 31 31 28 26 25 24 24 24 23 25 25 22 22 23 19 15 15 17 17 14 14 16 14 11 10 11 10 8 9 12 14 19 20 16 16 19 22 21 20 20 20 20 21 19 18 18 19 21 21 21 22 22 22 23 24 25 27 29 31 32 32 31 31 30 29 31 31 29
39 37 35 33 33 34 34 32 30 28 27 26 24 23 24 27 28 27 27 30 31 31 30 29 28 26 26 25 24 25 25 24 24 24 20 14 12 14 16 16 16 17 15 11 10 10 11 9 7 11 13 15 17 14 12 14 17 19 20 19 19 20 21 22 20 19 19 20 20 20 21 22 23 24 25 27 29 32 33 33 32 31 30 29 30 30 30 29
39 37 35 33 32 33 33 31 29 28 27 25 24 24 26 29 30 29 29 29 29 30 31 31 30 29 28 26 25 25 25 24 25 25 22 15 12 13 15 15 17 17 13 12 12 11 11 9 6 8 9 10 11 11 10 11 14 18 20 19 18 19 21 22 21 19 18 19 19 20 22 23 25 26 27 29 31 32 32 31 30 30 29 29 28 27 27 28
40 37 35 33 33 33 32 31 30 28 27 25 24 26 29 30 30 29 26 25 26 28 31 33 33 31 29 28 27 26 25 24 24 26 23 16 14 15 15 15 18 17 13 13 15 13 11 8 7 8 9 9 10 9 10 11 13 17 20 20 19 19 20 21 21 20 20 21 22 23 24 25 27 28 29 31 31 30 29 28 28 27 26 25 26 26 27 28
40 37 35 33 33 33 33 32 30 29 28 26 26 29 30 30 29 26 24 24 26 26 29 33 35 32 30 29 28 28 27 25 24 25 24 18 16 17 17 16 16 16 15 16 16 15 14 11 10 11 11 11 10 10 10 11 13 17 19 20 20 20 22 22 22 22 23 24 25 26 27 28 29 31 33 34 32 30 29 27 26 24 23 24 25 25 26 27
39 38 35 33 33 34 33 32 31 30 28 28 28 28 28 27 26 25 25 25 26 27 27 31 35 33 31 30 30 30 29 27 25 25 25 22 18 18 20 19 17 17 18 20 18 15 13 13 14 14 13 11 10 11 10 11 14 18 18 18 18 20 22 23 24 25 25 26 27 29 30 31 32 34 35 34 32 30 28 25 23 23 23 23 24 24 25 26
39 37 35 34 34 34 34 33 31 30 29 28 27 26 25 26 25 25 26 27 27 28 27 28 32 33 33 33 33 32 29 28 27 27 26 25 21 20 20 20 19 19 20 20 20 16 12 12 15 17 16 14 12 11 11 12 15 16 16 16 16 18 20 22 24 25 27 28 30 30 31 33 34 34 33 31 30 28 26 24 23 23 23 22 23 24 25 25
Wind_Direction
246 243 241 241 241 243 245 245 243 241 240 239 237 235 230 223 218 217 220 221 219 215 208 193 173 162 162 165 165 164 162 163 165 167 162 161 181 90 56 47 44 40 61 73 70 62 58 65 73 74 73 71 72 70 67 66 66 65 64 61 58 55 53 53 54 54 53 50 49 52 53 53 52 51 52 52 51 52 53 53 55 56 53 53 54 54 54 53
247 246 244 243 242 240 240 242 244 243 242 241 239 237 237 232 226 221 220 223 225 223 220 214 201 183 171 167 167 167 167 170 176 179 180 181 194 150 53 41 48 52 62 72 77 69 58 61 71 77 76 74 73 70 67 66 66 65 64 62 58 55 51 49 50 51 52 50 47 49 52 54 51 50 51 52 53 53 54 54 54 55 54 52 51 50 50 49
242 244 245 245 245 244 242 239 241 243 244 243 242 240 238 237 235 230 225 223 225 227 227 223 219 208 191 177 170 169 170 174 181 186 189 190 193 166 55 46 60 60 59 66 72 69 65 67 71 78 80 79 75 71 70 68 66 66 64 61 56 52 48 46 47 48 50 49 46 46 49 52 51 49 50 52 52 52 53 53 53 54 55 54 52 50 47 46
239 240 242 244 245 247 247 244 242 241 242 243 244 243 241 239 238 236 233 228 226 227 230 230 227 222 213 198 179 172 172 174 182 188 190 190 187 162 77 58 68 59 51 57 66 75 87 88 80 80 84 84 79 74 72 71 69 66 62 57 52 49 45 44 46 46 49 49 47 45 46 49 51 50 50 51 51 49 50 51 52 53 54 55 53 52 49 46
239 239 239 241 244 245 247 248 247 245 243 242 242 243 244 243 241 239 238 235 231 229 230 232 232 230 225 219 201 180 173 176 183 187 188 189 183 169 133 87 73 51 39 59 78 90 95 96 90 84 86 86 83 78 75 74 71 65 60 54 49 48 44 42 45 46 47 49 48 45 44 47 49 50 49 51 51 48 47 48 50 52 52 52 51 51 49 48
238 239 239 239 241 243 245 246 248 249 248 245 243 242 242 243 244 243 241 239 237 233 231 232 234 235 231 228 221 199 182 182 187 187 188 187 185 177 158 140 88 43 36 68 89 97 97 97 95 89 89 90 87 84 80 76 72 64 58 52 48 47 44 40 42 46 46 48 48 46 44 44 46 49 48 50 51 48 47 47 49 50 50 50 50 49 48 46
236 238 239 239 239 240 242 244 246 248 249 249 247 245 242 241 243 244 244 242 240 237 234 233 234 236 236 233 230 219 199 193 192 188 189 188 190 184 166 162 122 61 38 78 97 101 100 100 101 98 96 96 92 88 86 81 74 66 58 52 47 46 44 39 39 43 46 46 47 46 43 43 44 47 48 48 49 48 48 48 48 49 48 48 48 47 45 43
235 236 237 239 239 239 240 241 243 245 247 248 249 249 246 243 241 242 244 245 243 240 238 235 234 235 238 237 234 231 217 208 203 193 190 190 193 190 172 164 148 136 65 87 103 107 106 108 110 108 102 99 96 91 89 86 79 70 62 54 48 45 43 41 39 42 46 46 45 45 44 43 45 46 46 46 45 45 48 49 48 47 47 46 45 43 39 35
237 237 237 238 239 240 240 240 240 242 244 245 248 249 249 248 244 242 242 244 245 243 241 238 236 235 237 238 237 236 230 222 215 202 192 190 194 192 173 164 171 178 141 102 111 109 107 110 112 110 105 102 99 94 89 86 82 75 68 61 53 47 43 42 42 42 44 45 44 44 44 43 44 45 44 43 41 41 44 46 46 45 45 44 42 39 35 30
240 240 239 239 238 239 240 241 240 240 241 243 244 247 249 250 248 246 243 243 244 244 244 242 239 237 237 238 237 237 236 230 225 215 200 192 191 188 173 165 178 188 165 133 125 110 102 109 113 111 108 104 102 97 90 84 79 74 68 64 59 52 46 43 43 41 39 41 42 42 42 41 41 42 41 41 39 39 40 43 45 44 43 40 39 41 38 32
242 242 242 241 240 239 239 240 241 241 240 240 242 244 246 248 250 249 247 245 244 244 244 244 242 239 237 239 237 236 237 234 230 225 213 198 190 184 175 170 179 188 177 159 139 119 110 116 122 119 111 106 102 99 93 83 76 71 65 60 58 55 52 46 43 41 36 35 37 38 38 37 39 40 39 39 37 37 39 42 44 43 40 37 39 45 40 31
245 243 243 242 242 241 240 239 240 241 241 240 240 242 244 246 248 250 250 249 247 245 244 244 243 241 239 239 237 235 237 236 232 229 224 209 193 184 176 175 182 186 183 179 161 140 130 125 128 128 121 114 107 103 98 88 77 71 65 60 57 55 56 52 43 39 35 33 32 33 34 32 35 39 37 34 33 35 37 41 43 42 40 36 37 39 33 28
249 247 245 243 243 242 241 240 239 240 241 241 241 241 242 244 246 249 251 251 249 248 246 244 243 242 240 238 236 236 237 236 233 231 230 220 199 186 178 178 184 185 186 188 177 161 151 141 140 138 133 123 115 111 105 94 83 73 67 64 62 57 57 58 51 39 32 31 29 30 32 31 31 33 31 30 31 32 36 38 40 40 38 35 35 35 31 30
251 250 248 245 243 242 241 241 240 239 240 241 241 241 242 243 244 247 249 249 249 249 247 245 243 241 240 237 235 237 237 236 234 230 231 226 208 191 183 182 185 185 187 191 182 166 164 167 159 148 138 128 123 120 110 99 90 80 76 72 68 63 60 62 59 47 32 26 26 27 31 32 30 27 26 28 30 30 34 37 38 38 36 33 33 35 35 34
251 250 249 247 244 243 242 241 240 239 239 240 241 242 243 243 243 245 246 247 248 249 248 246 244 241 238 236 236 238 237 236 233 229 228 225 216 200 190 188 188 186 187 190 180 166 172 180 175 164 148 139 134 126 118 113 101 89 84 76 70 65 62 63 63 56 37 24 22 24 27 31 31 26 24 28 30 29 31 36 38 38 36 32 31 32 34 34
252 250 249 247 244 243 241 241 240 240 240 240 241 243 243 244 244 244 245 247 248 248 249 248 246 242 236 236 239 238 237 236 232 230 228 225 221 211 199 194 192 190 188 188 177 169 179 186 190 185 160 150 149 140 136 131 112 95 87 78 72 68 63 62 61 57 42 26 19 18 19 24 29 26 23 24 27 29 30 34 37 36 36 33 30 30 31 31
253 251 249 247 245 243 241 240 240 240 240 240 241 243 243 244 244 244 245 246 247 248 248 249 247 244 238 237 240 239 236 235 233 233 230 226 224 220 210 198 195 195 190 187 179 175 182 190 199 198 177 164 161 159 159 145 120 101 92 81 72 70 64 56 55 49 36 29 20 11 9 14 23 28 25 23 26 30 29 32 34 34 36 35 32 30 29 28
255 252 250 247 245 243 242 240 240 240 241 241 241 243 243 243 242 243 244 244 246 246 247 248 247 245 240 237 240 239 237 235 234 235 232 228 227 227 221 206 199 199 195 189 183 180 184 191 200 199 191 177 159 163 173 159 134 108 98 88 74 67 57 45 49 40 23 25 18 5 1 7 18 26 25 21 22 26 26 30 34 37 38 37 35 31 28 27
255 253 251 248 245 243 242 241 240 240 240 241 242 242 242 242 240 240 241 242 242 243 244 245 245 244 240 237 239 239 237 234 234 234 233 229 228 230 229 220 208 203 202 195 186 185 186 189 194 190 184 182 187 195 187 180 160 119 101 95 83 68 52 40 46 26 2 4 7 359 355 4 15 21 21 17 16 17 22 29 35 38 37 36 36 33 28 26
255 253 251 248 245 243 243 241 240 240 240 241 241 242 242 241 239 238 238 239 239 241 242 242 242 242 241 238 239 239 237 234 231 231 231 229 229 230 230 229 220 211 208 200 191 189 188 188 184 175 177 196 214 209 193 215 214 168 120 103 98 83 77 73 31 356 337 338 351 353 354 5 13 14 14 13 11 9 14 24 31 33 32 31 33 32 26 23
253 252 251 249 246 243 242 241 240 240 240 241 241 241 241 240 238 237 237 238 239 240 242 241 240 241 240 238 238 239 238 236 232 231 231 230 231 232 231 232 229 221 212 205 202 197 194 192 177 166 182 203 209 197 189 211 220 213 200 133 120 116 100 51 327 316 323 331 341 347 351 1 5 5 8 9 7 4 4 12 24 28 27 26 27 27 24 20
250 250 250 249 246 243 242 242 241 240 240 241 240 240 240 239 239 239 239 240 239 239 241 241 240 241 240 239 239 240 238 235 232 231 230 231 233 235 235 233 232 230 218 211 212 208 204 197 175 170 189 200 199 192 190 203 212 217 205 172 160 160 81 6 333 306 316 334 341 342 341 350 359 359 1 4 6 6 359 1 14 24 25 23 23 22 20 16
248 248 249 248 247 244 242 242 242 241 240 240 240 239 240 240 240 239 239 241 239 237 239 240 239 241 240 239 239 240 239 235 232 232 230 232 234 235 236 233 231 232 226 217 216 216 213 198 181 183 192 195 196 192 190 197 206 215 205 193 196 206 251 309 325 315 309 328 332 328 329 339 355 358 359 6 9 4 356 356 6 19 23 20 18 16 15 15
245 246 247 248 246 244 242 242 241 241 240 239 239 239 240 240 239 236 236 239 238 234 237 238 238 240 239 238 238 238 239 237 234 232 229 230 232 233 235 234 231 231 230 225 219 221 216 195 190 195 195 197 199 195 191 196 205 215 206 202 213 215 250 284 309 311 294 309 315 311 324 334 349 360 358 0 1 356 354 357 2 13 19 14 12 9 9 12
243 244 246 246 245 244 242 240 240 240 238 239 239 240 240 239 237 234 233 237 237 234 237 237 237 240 240 240 240 239 239 237 233 229 228 229 230 231 232 233 232 231 232 231 225 225 214 194 195 201 200 202 202 196 194 198 202 208 209 212 220 210 216 291 303 298 284 291 298 301 318 327 341 356 349 347 353 354 354 358 359 6 11 7 4 4 4 5
240 242 244 245 245 243 241 239 239 238 238 239 239 239 239 238 236 232 232 236 238 237 236 236 237 239 240 240 240 240 237 232 229 226 226 228 228 229 231 232 234 234 236 236 232 227 211 197 199 204 206 208 207 199 196 202 199 200 211 218 224 214 195 239 285 296 287 283 284 295 310 316 330 343 341 346 356 357 353 356 357 359 1 359 358 359 359 358
238 239 242 243 243 242 241 239 238 238 239 240 239 239 238 236 235 232 233 237 239 237 236 237 237 237 239 239 238 238 234 230 228 226 225 228 228 228 230 232 233 235 237 238 236 229 211 201 205 209 211 213 211 200 196 207 201 197 211 217 224 224 208 217 252 284 289 282 283 295 307 314 324 334 342 354 359 356 355 354 350 349 351 351 352 354 353 351
237 237 240 241 241 241 240 239 238 238 240 240 239 238 236 235 233 232 235 239 238 234 233 235 235 234 237 237 235 234 232 231 228 225 226 229 230 229 230 231 231 232 234 235 235 231 216 206 209 212 214 216 211 196 197 210 205 201 212 217 223 227 220 222 236 265 281 280 285 293 302 315 324 332 347 359 356 352 348 343 340 340 343 344 346 347 346 345
236 236 237 239 239 239 239 238 238 238 239 239 238 237 236 234 232 232 237 238 234 230 229 232 231 232 235 235 233 231 231 232 230 226 227 230 231 231 231 231 231 231 233 234 234 230 219 207 209 213 215 216 210 199 202 212 208 206 212 219 227 230 228 232 236 255 276 278 283 289 298 309 316 326 349 356 355 349 330 330 333 332 335 338 341 342 342 342
235 235 236 237 237 237 237 238 238 237 237 238 238 237 236 234 233 236 238 234 231 231 230 232 231 231 231 230 229 229 228 230 231 229 228 230 232 232 232 232 233 235 236 238 237 233 225 211 211 216 217 215 211 206 207 212 211 210 214 223 232 233 232 237 242 249 264 274 281 287 297 304 305 315 344 346 351 345 326 324 327 327 328 333 337 340 340 339
235 235 234 235 235 235 235 237 237 236 236 238 237 237 236 235 235 237 236 231 231 233 231 233 236 236 235 233 229 228 229 230 233 234 233 233 234 233 234 234 236 237 239 242 242 240 235 221 216 219 219 215 212 211 209 211 215 213 216 229 236 239 238 240 251 254 260 271 279 286 293 295 297 305 323 329 338 334 324 323 324 324 325 331 336 338 337 335
234 234 234 233 233 233 234 236 236 234 235 236 236 236 235 236 237 236 234 232 232 233 233 234 240 244 244 243 237 233 234 236 238 239 238 237 237 236 236 236 237 239 240 242 242 240 238 230 221 218 219 216 213 213 211 211 217 216 219 230 237 242 243 245 255 261 266 273 278 285 288 284 286 291 300 317 326 319 318 322 324 324 325 329 334 335 334 332
235 234 234 232 231 231 232 234 235 234 233 234 235 235 234 236 238 235 232 232 233 235 237 238 241 244 245 245 242 237 235 236 238 239 238 237 237 238 238 238 239 239 240 242 242 240 237 234 228 220 218 217 214 214 213 213 218 219 222 231 235 238 243 248 256 266 275 282 283 285 282 275 274 281 292 307 314 310 314 318 321 324 324 328 331 330 329 329
235 234 233 231 229 229 231 232 233 234 233 233 234 234 234 236 236 234 232 233 234 236 235 234 236 238 239 240 243 241 234 231 233 234 233 231 231 234 233 234 235 235 236 240 242 243 242 240 236 226 220 219 216 216 216 217 219 220 223 230 235 238 244 249 256 267 277 281 280 278 275 270 270 279 290 299 306 308 310 311 316 321 322 324 326 324 324 325
236 235 233 230 227 227 230 230 231 233 232 232 232 232 233 235 233 232 232 233 234 233 228 226 228 230 234 235 238 241 237 232 231 231 228 223 223 227 226 228 232 233 232 236 240 243 244 243 239 231 222 218 216 216 217 217 218 219 223 229 236 241 247 252 254 259 262 260 261 264 267 268 268 277 289 297 305 307 306 307 314 317 318 320 321 319 320 322
236 235 233 229 226 226 228 228 229 230 231 231 231 230 231 233 231 229 229 230 231 228 222 219 219 222 228 232 234 236 237 234 231 230 224 216 217 226 231 234 238 238 237 238 239 238 238 239 238 235 227 217 215 215 215 214 215 220 226 231 235 241 247 250 249 250 249 246 250 254 258 262 268 279 288 294 301 303 304 308 312 313 315 318 317 316 317 319
235 234 233 228 225 226 226 226 227 228 229 230 228 228 229 230 229 227 226 226 225 221 218 213 213 219 224 229 232 232 233 232 228 225 219 210 213 223 236 245 245 243 242 238 234 230 230 234 236 234 226 216 213 214 214 212 214 221 226 228 232 238 243 244 245 247 248 248 250 253 257 263 271 279 284 292 297 300 304 308 308 310 313 315 314 313 315 317
233 233 232 227 224 224 225 225 226 227 227 228 227 228 228 228 228 226 224 223 219 216 216 213 215 221 224 226 228 225 225 224 218 212 202 194 189 183 193 218 225 226 228 226 223 219 217 223 229 227 220 213 210 210 211 211 213 217 219 221 227 234 239 242 243 246 251 258 262 263 265 268 273 278 282 290 294 297 302 303 304 308 312 314 313 313 315 316
231 231 230 227 223 223 223 223 224 225 225 226 227 228 226 226 226 225 223 222 218 215 214 213 216 222 223 223 223 221 220 215 207 199 184 169 161 159 170 176 180 198 209 210 206 202 204 212 219 217 212 211 209 207 206 208 212 215 215 220 227 233 236 239 242 244 248 258 267 271 274 277 280 282 285 290 293 296 299 298 302 307 311 313 313 312 313 313
228 229 228 226 223 221 221 222 222 223 224 225 227 227 225 225 226 225 224 223 220 217 214 213 216 220 222 224 223 219 214 202 195 187 169 158 158 163 173 170 165 173 180 185 188 188 198 206 210 211 207 206 207 206 203 204 210 215 217 219 223 228 232 236 241 243 243 249 258 263 269 278 284 284 285 289 293 295 295 296 301 306 310 312 312 310 310 312
226 227 226 224 222 220 220 220 221 222 224 226 228 227 226 228 228 227 227 226 224 221 216 214 215 218 221 225 221 208 195 185 182 176 167 166 169 170 175 171 168 173 168 168 177 180 186 189 191 200 199 193 195 197 196 199 206 212 213 211 214 224 233 240 246 246 245 249 258 264 271 279 285 286 287 291 294 294 295 298 303 307 309 310 308 306 307 309
224 225 224 223 221 218 218 219 220 221 224 227 228 228 228 230 231 231 230 228 224 221 218 215 214 214 219 224 216 194 179 176 178 175 170 172 173 172 175 174 176 182 170 160 166 174 176 177 181 190 189 184 187 190 192 198 205 211 212 210 216 228 237 244 250 251 251 254 260 268 275 280 284 289 293 297 299 299 300 303 305 305 305 304 303 303 304 305
222 223 222 222 219 217 217 218 219 220 223 226 228 229 230 231 232 232 228 224 221 219 216 212 211 211 216 221 211 188 178 181 182 177 171 173 175 174 177 180 185 191 177 163 166 177 183 184 182 185 187 187 189 191 195 201 206 211 215 217 224 236 244 247 251 253 254 256 261 269 275 280 285 292 296 298 300 301 305 308 307 305 303 302 302 302 301 301
220 221 221 220 218 216 216 218 219 220 221 224 227 229 229 229 231 231 225 220 219 216 213 209 208 209 213 217 208 187 181 186 184 176 173 180 182 178 181 186 187 185 173 168 173 175 177 186 186 188 192 195 197 199 202 206 210 214 222 226 231 241 248 249 250 252 255 260 264 269 274 282 288 292 294 295 298 304 311 314 312 308 306 305 304 303 301 300
218 219 219 218 216 215 216 217 218 220 220 221 224 225 226 228 230 231 226 221 218 215 212 207 206 206 209 212 206 192 186 186 183 177 178 192 192 182 181 183 175 168 166 174 186 183 165 173 191 198 200 202 207 214 216 218 219 222 230 236 238 240 240 241 247 252 255 261 266 269 273 281 287 289 291 294 300 307 312 314 313 310 308 308 308 307 306 305
216 217 217 216 214 214 215 216 218 220 220 220 222 222 224 228 231 232 227 222 218 216 213 208 204 205 207 207 204 199 192 187 185 182 185 200 204 189 183 178 168 166 169 176 183 179 163 160 191 205 202 203 210 222 232 231 228 233 241 245 246 242 235 236 247 257 260 262 266 271 276 282 285 288 294 299 304 308 310 311 310 309 308 308 308 308 308 308
214 215 215 214 215 215 215 216 218 219 220 220 222 221 221 225 230 230 226 222 218 216 214 210 206 206 208 206 204 205 200 190 187 189 193 210 219 199 185 179 169 166 173 182 181 178 170 164 193 210 203 206 214 225 239 238 232 238 245 249 252 250 242 242 252 262 265 263 265 271 277 282 285 290 297 302 305 307 308 307 306 305 305 304 304 304 305 306
212 213 214 214 215 215 215 216 218 218 219 219 221 221 219 221 226 227 226 224 221 217 215 213 212 209 209 207 207 211 210 199 192 194 200 215 226 207 190 183 177 171 175 187 190 193 188 181 204 216 211 222 229 231 240 237 230 233 239 244 250 252 251 251 256 261 260 260 265 271 276 281 286 291 296 301 305 306 305 304 302 302 302 302 301 302 303 304
210 211 212 213 215 214 214 215 216 217 217 217 220 220 218 219 223 226 227 226 224 220 216 215 217 215 211 209 209 215 218 210 199 198 203 213 222 214 203 191 185 184 189 196 201 205 201 204 233 234 228 237 238 236 240 237 231 231 235 240 243 248 253 256 258 259 258 261 266 270 276 282 286 290 296 302 306 307 305 303 302 302 302 301 301 302 303 304
209 209 211 213 214 213 212 213 215 215 216 217 220 221 220 221 225 227 228 227 226 224 218 216 219 219 216 213 212 217 222 219 208 202 203 208 214 217 214 205 197 200 208 211 213 215 216 227 247 246 242 244 242 238 239 238 238 238 240 244 245 246 251 255 256 258 260 263 266 270 276 282 285 290 297 301 303 305 305 303 302 301 300 300 301 303 305 305
207 208 210 212 213 212 211 213 214 214 216 218 221 224 225 226 228 227 228 228 227 225 221 218 221 221 219 218 217 218 222 223 218 209 205 207 210 213 216 215 210 207 211 215 217 220 227 240 252 254 252 251 244 236 233 233 237 242 247 252 250 248 250 254 257 261 263 266 271 276 281 284 289 293 296 297 299 301 301 299 298 297 297 299 303 305 307 308
205 207 209 210 211 210 210 212 213 213 216 219 222 225 226 227 228 227 227 227 227 227 224 221 222 221 219 219 220 221 224 226 224 216 209 208 210 211 213 217 216 207 205 212 218 223 236 249 257 262 266 267 259 241 230 231 235 242 251 255 253 252 253 257 262 266 269 273 277 282 285 290 294 295 294 295 296 296 294 293 294 296 298 302 306 308 310 310